| time (UTC) | temp C | wind direction | speed KPH | gust KPH | rain 1hr cm | rain 24hr cm | rain mn cm | humidity % | barometer mb |
| 20260509045015 | 10 | 203 | 8.0 | 14.5 | 0.15 | 0.79 | 0.15 | 94 | 1006.8 |
| 20260509044015 | 10 | 203 | 4.8 | 11.3 | 0.15 | 0.76 | 0.13 | 94 | 1006.7 |
| 20260509043517 | 10 | 203 | 3.2 | 11.3 | 0.13 | 0.74 | 0.10 | 94 | 1006.7 |
| 20260509042515 | 10 | 203 | 4.8 | 14.5 | 0.10 | 0.71 | 0.08 | 94 | 1006.9 |
| 20260509041516 | 10 | 0.0 | 0.0 | 0.08 | 0.69 | 0.05 | 94 | 1007.0 | |
| 20260509040616 | 10 | 0.0 | 6.4 | 0.03 | 0.64 | 0.00 | 94 | 1007.0 | |
| 20260509035517 | 10 | 0.0 | 4.8 | 0.03 | 0.64 | 0.64 | 94 | 1007.1 | |
| 20260509034517 | 10 | 0.0 | 6.4 | 0.03 | 0.64 | 0.64 | 94 | 1007.5 | |
| 20260509033517 | 10 | 0.0 | 0.0 | 0.00 | 0.61 | 0.61 | 94 | 1007.6 | |
| 20260509032517 | 10 | 180 | 1.6 | 9.7 | 0.00 | 0.61 | 0.61 | 94 | 1007.5 |
| 20260509031537 | 10 | 0.0 | 4.8 | 0.03 | 0.61 | 0.61 | 94 | 1007.6 | |
| 20260509030517 | 10 | 0.0 | 4.8 | 0.03 | 0.61 | 0.61 | 94 | 1007.7 | |
| 20260509025517 | 10 | 0.0 | 6.4 | 0.05 | 0.61 | 0.61 | 94 | 1008.0 | |
| 20260509024517 | 10 | 0.0 | 3.2 | 0.05 | 0.61 | 0.61 | 93 | 1007.9 | |
| 20260509023557 | 10 | 0.0 | 1.6 | 0.08 | 0.61 | 0.61 | 93 | 1008.1 | |
| 20260509022517 | 10 | 0.0 | 1.6 | 0.08 | 0.61 | 0.61 | 93 | 1008.0 | |
| 20260509021517 | 10 | 0.0 | 1.6 | 0.05 | 0.58 | 0.58 | 93 | 1008.1 | |
| 20260509020537 | 10 | 0.0 | 0.0 | 0.08 | 0.58 | 0.58 | 93 | 1007.9 | |
| 20260509015517 | 10 | 180 | 1.6 | 8.0 | 0.05 | 0.56 | 0.56 | 93 | 1007.9 |
| 20260509014517 | 10 | 0.0 | 6.4 | 0.05 | 0.56 | 0.56 | 93 | 1007.8 | |
| 20260509013558 | 10 | 0.0 | 3.2 | 0.05 | 0.53 | 0.53 | 93 | 1007.9 | |
| 20260509012557 | 10 | 0.0 | 0.0 | 0.05 | 0.53 | 0.53 | 93 | 1007.8 | |
| 20260509011538 | 10 | 0.0 | 0.0 | 0.05 | 0.53 | 0.53 | 93 | 1007.6 | |
| 20260509010537 | 10 | 0.0 | 0.0 | 0.08 | 0.51 | 0.51 | 92 | 1007.6 | |
| 20260509005537 | 10 | 0.0 | 0.0 | 0.08 | 0.51 | 0.51 | 92 | 1007.6 | |
| 20260509004517 | 10 | 0.0 | 0.0 | 0.10 | 0.51 | 0.51 | 92 | 1007.6 | |
| 20260509003537 | 10 | 0.0 | 0.0 | 0.10 | 0.48 | 0.48 | 92 | 1007.6 | |
| 20260509002517 | 10 | 0.0 | 1.6 | 0.13 | 0.48 | 0.48 | 92 | 1007.4 | |
| 20260509001517 | 10 | 0.0 | 0.0 | 0.15 | 0.48 | 0.48 | 92 | 1007.4 | |
| 20260509000637 | 10 | 0.0 | 0.0 | 0.13 | 0.43 | 0.46 | 92 | 1007.5 | |
| 20260508235537 | 10 | 0.0 | 3.2 | 0.15 | 0.43 | 0.43 | 92 | 1007.5 | |
| 20260508234537 | 10 | 0.0 | 1.6 | 0.15 | 0.41 | 0.41 | 91 | 1007.7 | |
| 20260508233517 | 10 | 0.0 | 0.0 | 0.15 | 0.38 | 0.38 | 91 | 1007.7 | |
| 20260508232517 | 10 | 0.0 | 1.6 | 0.13 | 0.36 | 0.36 | 91 | 1007.5 | |
| 20260508231517 | 10 | 0.0 | 0.0 | 0.10 | 0.33 | 0.33 | 90 | 1007.5 | |
| 20260508230517 | 10 | 0.0 | 0.0 | 0.08 | 0.30 | 0.30 | 90 | 1007.4 | |
| 20260508225537 | 10 | 0.0 | 0.0 | 0.08 | 0.28 | 0.28 | 90 | 1007.3 | |
| 20260508224517 | 11 | 0.0 | 0.0 | 0.05 | 0.25 | 0.25 | 90 | 1007.2 | |
| 20260508223537 | 11 | 0.0 | 0.0 | 0.03 | 0.23 | 0.23 | 90 | 1007.3 | |
| 20260508222517 | 11 | 0.0 | 0.0 | 0.03 | 0.23 | 0.23 | 90 | 1007.2 | |
| 20260508221538 | 11 | 0.0 | 1.6 | 0.03 | 0.23 | 0.23 | 89 | 1007.3 | |
| 20260508220517 | 11 | 0.0 | 0.0 | 0.03 | 0.23 | 0.23 | 89 | 1007.3 | |
| 20260508215557 | 11 | 0.0 | 0.0 | 0.00 | 0.20 | 0.20 | 89 | 1007.0 | |
| 20260508214517 | 11 | 0.0 | 4.8 | 0.00 | 0.20 | 0.20 | 89 | 1006.9 | |
| 20260508213517 | 11 | 0.0 | 4.8 | 0.00 | 0.20 | 0.20 | 90 | 1006.6 | |
| 20260508213017 | 11 | 113 | 1.6 | 4.8 | 0.00 | 0.20 | 0.20 | 90 | 1006.6 |
| 20260508212017 | 11 | 0.0 | 4.8 | 0.00 | 0.20 | 0.20 | 90 | 1006.8 | |
| 20260508211037 | 11 | 0.0 | 4.8 | 0.00 | 0.20 | 0.20 | 89 | 1007.0 | |
| 20260508210038 | 11 | 0.0 | 0.0 | 0.00 | 0.20 | 0.20 | 89 | 1007.3 | |
| 20260508205017 | 11 | 0.0 | 0.0 | 0.00 | 0.20 | 0.20 | 89 | 1007.4 | |
| 20260508204017 | 11 | 0.0 | 0.0 | 0.03 | 0.20 | 0.20 | 89 | 1007.7 | |
| 20260508203037 | 11 | 0.0 | 0.0 | 0.03 | 0.20 | 0.20 | 89 | 1007.9 | |
| 20260508202017 | 11 | 0.0 | 0.0 | 0.05 | 0.20 | 0.20 | 88 | 1008.1 | |
| 20260508201038 | 10 | 0.0 | 0.0 | 0.08 | 0.20 | 0.20 | 88 | 1008.4 | |
| 20260508200017 | 10 | 0.0 | 0.0 | 0.08 | 0.20 | 0.20 | 88 | 1008.4 | |
| 20260508195017 | 10 | 0.0 | 1.6 | 0.08 | 0.20 | 0.20 | 87 | 1008.7 | |
| 20260508194018 | 10 | 0.0 | 6.4 | 0.05 | 0.18 | 0.18 | 87 | 1008.9 | |
| 20260508193037 | 10 | 203 | 3.2 | 9.7 | 0.05 | 0.18 | 0.18 | 86 | 1008.9 |
| 20260508192037 | 11 | 225 | 11.3 | 20.9 | 0.03 | 0.15 | 0.15 | 83 | 1009.2 |
| 20260508191017 | 11 | 203 | 11.3 | 17.7 | 0.00 | 0.13 | 0.13 | 81 | 1009.2 |
| 20260508190017 | 11 | 203 | 12.9 | 24.1 | 0.00 | 0.13 | 0.13 | 80 | 1009.1 |
| 20260508185037 | 12 | 203 | 11.3 | 19.3 | 0.03 | 0.13 | 0.13 | 81 | 1009.0 |
| 20260508184037 | 12 | 225 | 8.0 | 20.9 | 0.05 | 0.13 | 0.13 | 83 | 1008.8 |
| 20260508183017 | 11 | 203 | 11.3 | 20.9 | 0.05 | 0.13 | 0.13 | 83 | 1009.0 |
| 20260508182017 | 11 | 203 | 11.3 | 17.7 | 0.05 | 0.13 | 0.13 | 85 | 1009.1 |
| 20260508181018 | 11 | 203 | 9.7 | 12.9 | 0.05 | 0.13 | 0.13 | 85 | 1009.2 |
| 20260508180017 | 11 | 203 | 11.3 | 19.3 | 0.05 | 0.13 | 0.13 | 83 | 1009.3 |
| 20260508175036 | 11 | 225 | 9.7 | 16.1 | 0.03 | 0.10 | 0.10 | 80 | 1009.7 |
| 20260508174517 | 11 | 225 | 9.7 | 17.7 | 0.00 | 0.08 | 0.08 | 79 | 1009.9 |
| 20260508173515 | 12 | 225 | 4.8 | 9.7 | 0.00 | 0.08 | 0.08 | 79 | 1010.0 |
| 20260508172538 | 12 | 225 | 8.0 | 14.5 | 0.00 | 0.08 | 0.08 | 78 | 1010.1 |
| 20260508171517 | 12 | 248 | 8.0 | 14.5 | 0.00 | 0.08 | 0.08 | 78 | 1010.1 |
| 20260508170515 | 12 | 248 | 8.0 | 12.9 | 0.00 | 0.08 | 0.08 | 78 | 1010.1 |
| 20260508165515 | 12 | 248 | 11.3 | 17.7 | 0.00 | 0.08 | 0.08 | 76 | 1010.2 |
| 20260508164535 | 12 | 225 | 11.3 | 17.7 | 0.00 | 0.08 | 0.08 | 76 | 1010.0 |
| 20260508163515 | 12 | 248 | 11.3 | 19.3 | 0.00 | 0.08 | 0.08 | 74 | 1010.1 |
| 20260508162515 | 12 | 248 | 11.3 | 17.7 | 0.00 | 0.08 | 0.08 | 73 | 1010.0 |
| 20260508161515 | 12 | 225 | 12.9 | 19.3 | 0.00 | 0.08 | 0.08 | 72 | 1010.2 |
| 20260508160636 | 13 | 248 | 14.5 | 22.5 | 0.00 | 0.08 | 0.08 | 70 | 1010.1 |
| 20260508155515 | 13 | 225 | 11.3 | 20.9 | 0.00 | 0.08 | 0.08 | 70 | 1010.3 |
| 20260508154515 | 13 | 248 | 12.9 | 22.5 | 0.00 | 0.08 | 0.08 | 70 | 1010.3 |
| 20260508153515 | 12 | 248 | 16.1 | 24.1 | 0.00 | 0.08 | 0.08 | 71 | 1010.4 |
| 20260508152515 | 12 | 248 | 12.9 | 20.9 | 0.00 | 0.08 | 0.08 | 71 | 1010.3 |
| 20260508151515 | 12 | 248 | 12.9 | 19.3 | 0.00 | 0.08 | 0.08 | 70 | 1010.2 |
| 20260508150516 | 12 | 248 | 14.5 | 22.5 | 0.00 | 0.08 | 0.08 | 71 | 1010.2 |
| 20260508145535 | 12 | 248 | 14.5 | 24.1 | 0.00 | 0.08 | 0.08 | 70 | 1010.1 |
| 20260508144515 | 12 | 248 | 11.3 | 19.3 | 0.00 | 0.08 | 0.08 | 73 | 1010.2 |
| 20260508143535 | 12 | 270 | 9.7 | 19.3 | 0.00 | 0.08 | 0.08 | 73 | 1010.1 |
| 20260508142515 | 12 | 248 | 12.9 | 25.7 | 0.00 | 0.08 | 0.08 | 72 | 1010.1 |
| 20260508141516 | 12 | 248 | 12.9 | 24.1 | 0.00 | 0.08 | 0.08 | 73 | 1010.1 |
| 20260508140535 | 11 | 270 | 8.0 | 17.7 | 0.00 | 0.08 | 0.08 | 72 | 1010.1 |
| 20260508135535 | 11 | 270 | 11.3 | 22.5 | 0.00 | 0.08 | 0.08 | 73 | 1010.2 |
| 20260508134515 | 11 | 270 | 11.3 | 19.3 | 0.00 | 0.08 | 0.08 | 74 | 1010.3 |
| 20260508133556 | 11 | 270 | 6.4 | 22.5 | 0.00 | 0.08 | 0.08 | 73 | 1010.2 |
| 20260508133015 | 11 | 270 | 8.0 | 16.1 | 0.00 | 0.08 | 0.08 | 74 | 1010.2 |
| 20260508132015 | 11 | 270 | 12.9 | 29.0 | 0.00 | 0.08 | 0.08 | 74 | 1010.3 |
| 20260508131015 | 11 | 248 | 16.1 | 27.4 | 0.00 | 0.08 | 0.08 | 72 | 1010.4 |
| 20260508130015 | 11 | 248 | 11.3 | 19.3 | 0.00 | 0.08 | 0.08 | 75 | 1010.5 |
| 20260508125035 | 10 | 248 | 11.3 | 19.3 | 0.00 | 0.08 | 0.08 | 76 | 1010.4 |
| 20260508124015 | 10 | 248 | 11.3 | 20.9 | 0.00 | 0.08 | 0.08 | 74 | 1010.6 |
| 20260508123015 | 10 | 248 | 12.9 | 20.9 | 0.00 | 0.08 | 0.08 | 76 | 1010.5 |
| 20260508122015 | 9 | 225 | 11.3 | 19.3 | 0.00 | 0.08 | 0.08 | 76 | 1010.3 |
| 20260508121015 | 9 | 225 | 9.7 | 14.5 | 0.00 | 0.08 | 0.08 | 78 | 1010.2 |
| 20260508120016 | 8 | 203 | 8.0 | 14.5 | 0.00 | 0.08 | 0.08 | 82 | 1010.1 |
| 20260508115015 | 8 | 225 | 6.4 | 12.9 | 0.00 | 0.08 | 0.08 | 84 | 1010.2 |
| 20260508114036 | 7 | 203 | 9.7 | 14.5 | 0.00 | 0.08 | 0.08 | 86 | 1010.2 |
| 20260508113015 | 7 | 180 | 1.6 | 6.4 | 0.00 | 0.08 | 0.08 | 90 | 1010.1 |
| 20260508112015 | 6 | 0.0 | 3.2 | 0.00 | 0.08 | 0.08 | 89 | 1010.1 | |
| 20260508111015 | 6 | 0.0 | 1.6 | 0.00 | 0.08 | 0.08 | 89 | 1009.9 | |
| 20260508110016 | 6 | 0.0 | 0.0 | 0.03 | 0.08 | 0.08 | 88 | 1009.8 | |
| 20260508105056 | 6 | 0.0 | 0.0 | 0.03 | 0.08 | 0.08 | 87 | 1009.8 | |
| 20260508104055 | 7 | 0.0 | 0.0 | 0.03 | 0.08 | 0.08 | 86 | 1010.1 | |
| 20260508103056 | 7 | 0.0 | 0.0 | 0.03 | 0.08 | 0.08 | 87 | 1010.2 | |
| 20260508102101 | 7 | 270 | 1.6 | 6.4 | 0.03 | 0.08 | 0.08 | 88 | 1010.5 |
| 20260508101056 | 7 | 248 | 3.2 | 19.3 | 0.03 | 0.08 | 0.08 | 88 | 1010.5 |
| 20260508100015 | 6 | 0.0 | 0.0 | 0.00 | 0.05 | 0.05 | 87 | 1010.3 | |
| 20260508095015 | 7 | 0.0 | 0.0 | 0.00 | 0.05 | 0.05 | 86 | 1009.8 | |
| 20260508094036 | 7 | 0.0 | 0.0 | 0.03 | 0.05 | 0.05 | 86 | 1009.7 | |
| 20260508093035 | 7 | 180 | 1.6 | 6.4 | 0.05 | 0.05 | 0.05 | 85 | 1009.7 |
| 20260508092015 | 7 | 0.0 | 3.2 | 0.05 | 0.05 | 0.05 | 84 | 1009.9 | |
| 20260508091035 | 7 | 248 | 3.2 | 8.0 | 0.05 | 0.05 | 0.05 | 83 | 1010.2 |
| 20260508090056 | 8 | 225 | 4.8 | 9.7 | 0.05 | 0.05 | 0.05 | 81 | 1010.0 |
| 20260508085015 | 8 | 248 | 6.4 | 17.7 | 0.05 | 0.05 | 0.05 | 80 | 1010.0 |
| 20260508084035 | 8 | 270 | 17.7 | 32.2 | 0.03 | 0.03 | 0.03 | 79 | 1010.4 |
| 20260508083017 | 8 | 248 | 14.5 | 25.7 | 0.00 | 0.00 | 0.00 | 79 | 1010.3 |
| 20260508082016 | 7 | 225 | 12.9 | 19.3 | 0.00 | 0.00 | 0.00 | 79 | 1010.0 |
| 20260508081015 | 7 | 225 | 12.9 | 19.3 | 0.00 | 0.00 | 0.00 | 79 | 1010.0 |
| 20260508080016 | 7 | 225 | 11.3 | 19.3 | 0.00 | 0.00 | 0.00 | 80 | 1010.2 |
| 20260508075036 | 7 | 203 | 6.4 | 14.5 | 0.00 | 0.00 | 0.00 | 80 | 1010.3 |
| 20260508074015 | 7 | 203 | 3.2 | 9.7 | 0.00 | 0.00 | 0.00 | 80 | 1010.2 |
| 20260508073113 | 7 | 225 | 6.4 | 11.3 | 0.00 | 0.00 | 0.00 | 79 | 1010.3 |
| 20260508072515 | 7 | 203 | 4.8 | 12.9 | 0.00 | 0.00 | 0.00 | 79 | 1010.4 |
| 20260508071536 | 7 | 225 | 6.4 | 12.9 | 0.00 | 0.00 | 0.00 | 79 | 1010.4 |
| 20260508070515 | 7 | 225 | 6.4 | 14.5 | 0.00 | 0.00 | 0.00 | 79 | 1010.5 |
| 20260508065516 | 8 | 225 | 8.0 | 14.5 | 0.00 | 0.00 | 0.00 | 79 | 1010.7 |
| 20260508064516 | 8 | 225 | 9.7 | 16.1 | 0.00 | 0.00 | 0.00 | 80 | 1010.7 |
| 20260508063515 | 8 | 248 | 11.3 | 19.3 | 0.00 | 0.00 | 0.00 | 79 | 1010.9 |
| 20260508061556 | 8 | 225 | 16.1 | 24.1 | 0.00 | 0.00 | 0.00 | 74 | 1011.0 |
| 20260508060516 | 8 | 225 | 11.3 | 17.7 | 0.00 | 0.00 | 0.00 | 72 | 1010.8 |
| 20260508055515 | 8 | 203 | 6.4 | 14.5 | 0.00 | 0.00 | 0.00 | 73 | 1010.7 |
| 20260508054516 | 8 | 203 | 4.8 | 11.3 | 0.00 | 0.00 | 0.00 | 74 | 1010.8 |
| 20260508053516 | 8 | 203 | 3.2 | 11.3 | 0.00 | 0.00 | 0.00 | 74 | 1010.7 |
| 20260508052516 | 8 | 203 | 4.8 | 11.3 | 0.00 | 0.00 | 0.00 | 74 | 1010.8 |
| 20260508051515 | 7 | 203 | 1.6 | 8.0 | 0.00 | 0.00 | 0.00 | 76 | 1010.9 |
| 20260508050516 | 7 | 0.0 | 4.8 | 0.00 | 0.00 | 0.00 | 76 | 1011.0 | |
| 20260508045516 | 7 | 0.0 | 1.6 | 0.00 | 0.00 | 0.00 | 77 | 1011.0 |